When you browse on this site, cookies collect data to enhance your experience and personalize the content and advertising you see.
Visit our Privacy Policy to learn more. By continuing to use the site, you agree to this use of cookies and data.
  • In Slovakia
  • List of Countries
  • For 7 days
  • Water Temperature
  • Satellite Maps
  • Weather Map
  • Weather Widgets
  • user-avatar
    Login

    Hourly Weather Bryski

    Today, 16 July, Tuesday

    Time Temperature Precipitation Wind Pressure Humidity
    00:00 +14°C° 0 mm 2 mps 748 mmHg 88%
    01:00 +13°C° 0 mm 3 mps 748 mmHg 93%
    02:00 +12°C° 0 mm 3 mps 748 mmHg 93%
    03:00 +12°C° 0 mm 3 mps 748 mmHg 94%
    04:00 +12°C° 0 mm 3 mps 747 mmHg 94%
    05:00 +13°C° 0 mm 4 mps 747 mmHg 88%
    06:00 +13°C° 0 mm 4 mps 747 mmHg 82%
    07:00 +14°C° 0 mm 4 mps 747 mmHg 79%
    08:00 +14°C° 0 mm 4 mps 747 mmHg 76%
    09:00 +15°C° 0 mm 5 mps 747 mmHg 72%
    10:00 +15°C° 0 mm 5 mps 747 mmHg 69%
    11:00 +15°C° 0 mm 5 mps 747 mmHg 71%
    12:00 +15°C° 0 mm 5 mps 747 mmHg 74%
    13:00 +15°C° 0 mm 5 mps 746 mmHg 76%
    14:00 +16°C° 0.5 mm 5 mps 746 mmHg 76%
    15:00 +17°C° 0.5 mm 6 mps 746 mmHg 76%
    16:00 +19°C° 0.5 mm 6 mps 746 mmHg 75%
    17:00 +17°C° 0.4 mm 5 mps 746 mmHg 78%
    18:00 +17°C° 0.4 mm 4 mps 746 mmHg 82%
    19:00 +16°C° 0.4 mm 3 mps 746 mmHg 85%
    20:00 +14°C° 0.1 mm 3 mps 746 mmHg 88%
    21:00 +14°C° 0.1 mm 3 mps 746 mmHg 91%
    22:00 +13°C° 0.1 mm 3 mps 746 mmHg 94%
    23:00 +12°C° 0 mm 4 mps 746 mmHg 94%

    Tomorrow, 17 July, Wednesday

    Time Temperature Precipitation Wind Pressure Humidity
    00:00 +12°C° 0 mm 4 mps 746 mmHg 95%
    01:00 +12°C° 0 mm 4 mps 746 mmHg 96%
    02:00 +12°C° 0.1 mm 5 mps 746 mmHg 95%
    03:00 +12°C° 0.1 mm 5 mps 745 mmHg 95%
    04:00 +12°C° 0.1 mm 5 mps 745 mmHg 95%
    05:00 +11°C° 0 mm 6 mps 745 mmHg 91%
    06:00 +12°C° 0 mm 7 mps 745 mmHg 87%
    07:00 +14°C° 0 mm 7 mps 746 mmHg 83%
    08:00 +15°C° 0.2 mm 7 mps 746 mmHg 79%
    09:00 +16°C° 0.2 mm 7 mps 746 mmHg 74%
    10:00 +17°C° 0.2 mm 7 mps 746 mmHg 69%
    11:00 +18°C° 0.3 mm 7 mps 746 mmHg 66%
    12:00 +19°C° 0.3 mm 6 mps 746 mmHg 63%
    13:00 +20°C° 0.3 mm 6 mps 746 mmHg 60%
    14:00 +20°C° 0.2 mm 6 mps 747 mmHg 61%
    15:00 +20°C° 0.2 mm 6 mps 747 mmHg 63%
    16:00 +19°C° 0.2 mm 5 mps 747 mmHg 64%
    17:00 +17°C° 0 mm 5 mps 747 mmHg 67%
    18:00 +17°C° 0 mm 4 mps 747 mmHg 71%
    19:00 +16°C° 0 mm 3 mps 747 mmHg 75%
    20:00 +14°C° 0 mm 3 mps 747 mmHg 80%
    21:00 +13°C° 0 mm 3 mps 747 mmHg 85%
    22:00 +12°C° 0 mm 3 mps 748 mmHg 91%
    23:00 +12°C° 0 mm 3 mps 748 mmHg 91%

    Day after tomorrow, 18 July, Thursday

    Time Temperature Precipitation Wind Pressure Humidity
    00:00 +12°C° 0 mm 3 mps 748 mmHg 91%
    01:00 +12°C° 0 mm 4 mps 748 mmHg 91%
    02:00 +12°C° 0 mm 3 mps 748 mmHg 93%
    03:00 +11°C° 0 mm 3 mps 748 mmHg 95%
    04:00 +11°C° 0 mm 3 mps 748 mmHg 97%
    05:00 +12°C° 0 mm 3 mps 748 mmHg 94%
    06:00 +13°C° 0 mm 3 mps 748 mmHg 91%
    07:00 +14°C° 0 mm 3 mps 748 mmHg 87%
    08:00 +17°C° 0 mm 3 mps 748 mmHg 80%
    09:00 +19°C° 0 mm 3 mps 749 mmHg 73%
    10:00 +21°C° 0 mm 3 mps 749 mmHg 66%
    11:00 +21°C° 0.1 mm 3 mps 749 mmHg 62%
    12:00 +22°C° 0.1 mm 3 mps 748 mmHg 58%
    13:00 +23°C° 0.1 mm 4 mps 748 mmHg 54%
    14:00 +23°C° 0 mm 4 mps 748 mmHg 53%
    15:00 +23°C° 0 mm 4 mps 748 mmHg 53%
    16:00 +23°C° 0 mm 4 mps 748 mmHg 52%
    17:00 +22°C° 0 mm 3 mps 748 mmHg 59%
    18:00 +20°C° 0 mm 3 mps 748 mmHg 65%
    19:00 +19°C° 0 mm 3 mps 748 mmHg 72%
    20:00 +18°C° 0 mm 2 mps 749 mmHg 77%
    21:00 +16°C° 0 mm 2 mps 749 mmHg 82%
    22:00 +15°C° 0 mm 2 mps 749 mmHg 86%
    23:00 +14°C° 0 mm 1 mps 749 mmHg 88%

    19 July, Friday

    Time Temperature Precipitation Wind Pressure Humidity
    00:00 +14°C° 0 mm 1 mps 749 mmHg 89%
    01:00 +13°C° 0 mm 1 mps 749 mmHg 90%
    02:00 +13°C° 0 mm 1 mps 749 mmHg 90%
    03:00 +13°C° 0 mm 1 mps 749 mmHg 90%
    04:00 +13°C° 0 mm 1 mps 749 mmHg 90%
    05:00 +15°C° 0 mm 1 mps 750 mmHg 84%
    06:00 +16°C° 0 mm 1 mps 750 mmHg 78%
    07:00 +19°C° 0 mm 1 mps 750 mmHg 72%
    08:00 +21°C° 0 mm 1 mps 750 mmHg 67%
    09:00 +22°C° 0 mm 1 mps 750 mmHg 62%
    10:00 +24°C° 0 mm 1 mps 750 mmHg 57%
    11:00 +24°C° 0.1 mm 1 mps 750 mmHg 54%
    12:00 +25°C° 0.1 mm 1 mps 750 mmHg 51%
    13:00 +26°C° 0.1 mm 1 mps 750 mmHg 48%
    14:00 +25°C° 0.1 mm 1 mps 749 mmHg 51%
    15:00 +25°C° 0.1 mm 1 mps 749 mmHg 53%
    16:00 +25°C° 0.1 mm 1 mps 749 mmHg 55%
    17:00 +24°C° 0 mm 1 mps 749 mmHg 58%
    18:00 +23°C° 0 mm 1 mps 749 mmHg 60%
    19:00 +22°C° 0 mm 1 mps 749 mmHg 62%
    20:00 +21°C° 0 mm 1 mps 750 mmHg 64%
    21:00 +20°C° 0 mm 1 mps 750 mmHg 66%
    22:00 +19°C° 0 mm 1 mps 750 mmHg 68%
    23:00 +18°C° 0 mm 1 mps 750 mmHg 71%

    20 July, Saturday

    Time Temperature Precipitation Wind Pressure Humidity
    00:00 +18°C° 0 mm 1 mps 750 mmHg 74%
    01:00 +16°C° 0 mm 2 mps 750 mmHg 77%
    02:00 +16°C° 0 mm 2 mps 750 mmHg 78%
    03:00 +16°C° 0 mm 2 mps 750 mmHg 79%
    04:00 +16°C° 0 mm 1 mps 750 mmHg 80%
    05:00 +18°C° 0 mm 1 mps 750 mmHg 76%
    06:00 +19°C° 0 mm 2 mps 751 mmHg 72%
    07:00 +20°C° 0 mm 2 mps 751 mmHg 68%
    08:00 +23°C° 0 mm 2 mps 751 mmHg 62%
    09:00 +24°C° 0 mm 2 mps 751 mmHg 55%
    10:00 +26°C° 0 mm 2 mps 751 mmHg 49%
    11:00 +26°C° 0 mm 1 mps 751 mmHg 48%
    12:00 +27°C° 0 mm 1 mps 751 mmHg 46%
    13:00 +27°C° 0 mm 1 mps 751 mmHg 45%
    14:00 +27°C° 0 mm 1 mps 751 mmHg 46%
    15:00 +27°C° 0 mm 1 mps 751 mmHg 47%
    16:00 +27°C° 0 mm 1 mps 751 mmHg 48%
    17:00 +26°C° 0 mm 2 mps 751 mmHg 53%
    18:00 +25°C° 0 mm 2 mps 751 mmHg 58%
    19:00 +24°C° 0 mm 2 mps 751 mmHg 63%
    20:00 +23°C° 0 mm 2 mps 751 mmHg 65%
    21:00 +21°C° 0 mm 2 mps 752 mmHg 66%
    22:00 +20°C° 0 mm 2 mps 752 mmHg 68%
    23:00 +19°C° 0 mm 3 mps 752 mmHg 69%

    21 July, Sunday

    Time Temperature Precipitation Wind Pressure Humidity
    00:00 +19°C° 0 mm 3 mps 752 mmHg 71%
    01:00 +18°C° 0 mm 3 mps 752 mmHg 73%
    02:00 +18°C° 0 mm 3 mps 752 mmHg 75%
    03:00 +17°C° 0 mm 3 mps 752 mmHg 78%
    04:00 +17°C° 0 mm 2 mps 752 mmHg 81%
    05:00 +19°C° 0 mm 3 mps 752 mmHg 78%
    06:00 +20°C° 0 mm 3 mps 753 mmHg 75%
    07:00 +22°C° 0 mm 3 mps 753 mmHg 71%
    08:00 +24°C° 0 mm 3 mps 753 mmHg 64%
    09:00 +26°C° 0 mm 4 mps 753 mmHg 58%
    10:00 +27°C° 0 mm 4 mps 753 mmHg 51%
    11:00 +28°C° 0 mm 4 mps 753 mmHg 49%
    12:00 +29°C° 0 mm 3 mps 753 mmHg 47%
    13:00 +29°C° 0 mm 3 mps 753 mmHg 45%
    14:00 +29°C° 0 mm 3 mps 753 mmHg 45%
    15:00 +29°C° 0 mm 3 mps 752 mmHg 46%
    16:00 +29°C° 0 mm 3 mps 752 mmHg 47%
    17:00 +27°C° 0 mm 2 mps 752 mmHg 53%
    18:00 +26°C° 0 mm 2 mps 752 mmHg 59%
    19:00 +25°C° 0 mm 2 mps 752 mmHg 65%
    20:00 +24°C° 0 mm 2 mps 753 mmHg 66%
    21:00 +23°C° 0 mm 2 mps 753 mmHg 67%
    22:00 +23°C° 0 mm 2 mps 753 mmHg 68%
    23:00 +22°C° 0.2 mm 1 mps 753 mmHg 73%
    Show more